Jackpot

Texas Poker Multi Jackpot System

Kini Telah hadir Jackpot SUPER ROYAL FLUSH

Kini Telah hadir Jackpot 2000 (khusus table VIP keatas).

Ikutilah global jackpot yang tersedia di system kami, dengan system jackpot terbaru dan pertama di indonesia, anda dapat membeli jackpot dengan harga 100 rupiah saja dan menangkan hadiahnya hingga puluhan juta rupiah.

Jackpot bukanlah suatu keharusan untuk dibeli, namun kami memberikan suatu fitur tambahan untuk member tercinta dari www.domino365.org.

Terdapat tiga pilihan harga jackpot yang bisa anda beli yaitu :100,500,1000 dan 2000(khusus table VIP Keatas) rupiah.

Hadiah dari Multi jackpot system www.domino365.org

  1. full house x 10 harga jackpot yang anda beli.
      (contoh:anda membeli 1000 maka:1000 X10 = 10.000)
  2. four of kind x 250 harga jackpot yang anda beli
      (contoh:anda membeli 1000 maka:1000 X250 = 250.000)
  3. Straight flush x 1200
      (contoh:anda membeli 1000 maka:1000 X1200 = 1.200.000)
  4. Royal flush x 10000 harga jackpot yang anda beli
      (contoh:anda membeli 1000 maka:1000 X10000 = 10.000.000)
  5. SUPER ROYAL FLUSH x 30000 harga jackpot yang anda beli
      (contoh:anda membeli 1000 maka:1000 X30000 = 30.000.000)

Kondisi kartu

  1. full house adalah kondisi kartu dimana kartu anda dan kartu tengah dengan total 7 kartu bisa mendapatkan nilai 5 kartu dengan kombinasi 1 tris(three of kind) dan 1 pair, contoh 3 kartu 10 dan 2 kartu 5
  2. Four of kind adalah kondisi kartu dimana kartu anda dan kartu tengah dengan total 7 kartu bisa mendapatkan nilai 5 kartu dengan kombinasi 4 kartu yang sama jumlah dan 1 kartu apapun juga contoh anda mendapatkan 4 buah kartu angka 3 dan 1 kartu apapun.
  3. Staright flush adalah kondisi kartu dimana kartu anda dan kartu tengah dengan total 7 kartu bisa mendapatkan nilai 5 kartu dengan kombinasi seri / staright dengan kembang yang sama contoh : urutan kartu dari angka 5, 6, 7, 8 , 9 10 dengan kembang yg sama misalnya as hati
  4. Royal flush adalah kondisi kartu dimana kartu anda dan kartu tengah dengan total 7 kartu bisa mendapatkan nilai 5 kartu dengan kombinasi seri / staright dengan kembang yang sama tetapi kartu tersebut haruslah dimulai dari 10. contoh 10, Queen, Jack, King dan aces dengan kembang yang sama
  5. Super Royal flush adalah kondisi kartu dimana Kedua kartu anda digabung dengan 3 kartu pertama meja haruslah royal flush. contoh kartu anda 10,Queen kembang sama dan 3 kartu pertama meja adalah Jack, King dan aces dengan kembang yang sama

Demikian adalah penjelasan dari Multi Jackpot www.domino365.org terima kasih dan selamat bermain salam hoki dari kami

Texas Poker Jackpot Winner

TOP SUPER ROYAL FLUSH
No.TanggalNamaPriceWin
121/04 04:00B4NDARC3MESuper Royal flush3,000,000
221/04 03:38OSESIAMSuper Royal flush15,000,000
321/04 00:18ERLINDA88Super Royal flush30,000,000
420/04 21:16PENGAK25Super Royal flush6,000,000
520/04 14:49_25_01_13_Super Royal flush3,000,000
TOP ROYAL FLUSH
No.TanggalNamaPriceWin
121/04 12:42RENJAKAIRoyal flush20,000,000
221/04 12:26AC3KZRoyal flush2,000,000
321/04 11:15UCING859Royal flush2,000,000
421/04 10:39CD9AF784Royal flush500,000
521/04 10:34MONANG_123Royal flush5,000,000
TOP STRAIGHT FLUSH
No.TanggalNamaPriceWin
121/04 12:33JEJEPIYA77Straight Flush1,200,000
221/04 12:32MSFUOPStraight Flush240,000
321/04 12:26ABIGAEL_Straight Flush600,000
421/04 12:25BUGAP123Straight Flush600,000
521/04 12:24JIEFOXStraight Flush240,000
LATEST JACKPOT
No.TanggalNamaPriceWin
121/04 12:42DWTEPOY1990Full House10,000
221/04 12:42IMI2017Full House5,000
321/04 12:42DJONGALIARFull House500
421/04 12:42ALEENA82Full House10,000
521/04 12:42ARLAM22Full House2,000
621/04 12:42SIMPA279Four Of A Kind125,000
721/04 12:42RENJAKAIRoyal flush20,000,000
821/04 12:42RAAKAAN1Full House20,000
921/04 12:42DAYANDRA02Full House2,000
1021/04 12:42YAKUUUUUFull House5,000
1121/04 12:42LOUNUSA01Full House2,000
1221/04 12:42F6WU3GKLA0Full House2,000
1321/04 12:42SEBLAK888Full House2,000
1421/04 12:42HENDRIBANFull House20,000
1521/04 12:42TBN700Full House5,000
1621/04 12:42ALIF037Full House5,000
1721/04 12:42O1MCIZFG8CFull House5,000
1821/04 12:42KURAWAL69Full House1,000
1921/04 12:41MUMU103Full House2,000
2021/04 12:41TEMPIK01Full House2,000
2121/04 12:41AMO11Four Of A Kind50,000
2221/04 12:41AL1AN9Full House2,000
2321/04 12:41WANPONO007Full House5,000
2421/04 12:41DUCKDFull House2,000
2521/04 12:41TREGESZFull House20,000
2621/04 12:41B4ST3NFull House10,000
2721/04 12:41B0NCIL69Full House10,000
2821/04 12:41M4RS4NDIFull House1,000
2921/04 12:41BUDYSETFull House10,000
3021/04 12:41KMHAISUK07Full House2,000
3121/04 12:41BUDGET88Full House5,000
3221/04 12:41DEATHSOME3Full House2,000
3321/04 12:41ICHA55Full House20,000
3421/04 12:41ANDAMUI20Full House2,000
3521/04 12:41BUSY6Full House5,000
3621/04 12:41U1Z0R8PZ6KFull House5,000
3721/04 12:41KOL1NGFull House2,000
3821/04 12:41UMAR469Full House5,000
3921/04 12:41TOTOL7788Full House5,000
4021/04 12:41ZOYA03Four Of A Kind125,000
4121/04 12:41TAHIR05Full House5,000
4221/04 12:41DENMOKONKFull House1,000
4321/04 12:41PAKHAJI899Full House1,000
4421/04 12:41CB8282DONEFull House2,000
4521/04 12:41XXXBAYI99Full House5,000
4621/04 12:41IAN1Full House10,000
4721/04 12:41DWBTBHOT71Full House2,000
4821/04 12:41VERO1194Full House2,000
4921/04 12:41SCCOTERFull House2,000
5021/04 12:41BOYDEK212Full House1,000

Domino Multi Jackpot System

Ikutilah global jackpot yang tersedia di system kami, dengan system jackpot terbaru dan pertama di indonesia, anda dapat membeli jackpot dengan harga 100 rupiah saja dan menangkan hadiahnya hingga puluhan juta rupiah.

Jackpot bukanlah suatu keharusan untuk dibeli, namun kami memberikan suatu fitur tambahan untuk member tercinta dari www.domino365.org.

Terdapat tiga pilihan harga jackpot yang bisa anda beli yaitu :100,500 dan 1000 rupiah.

Hadiah dari Multi jackpot system www.domino365.org

  1. Murni Kecil x 50 harga jackpot yang anda beli.
      (contoh:anda membeli 1000 maka:1000 X 50 = 50.000)
  2. Murni Besar x 50 harga jackpot yang anda beli
      (contoh:anda membeli 1000 maka:1000 X 50 = 50.000)
  3. BALAK x 100 harga jackpot yang anda beli
      (contoh:anda membeli 1000 maka:1000 X 100 = 100.000)
  4. ENAM DEWA x 6666 harga jackpot yang anda beli
      (contoh:anda membeli 1000 maka:1000 X 6666 = 6.666.000)

Demikian adalah penjelasan dari Multi Jackpot www.domino365.org terima kasih dan selamat bermain salam hoki dari kami

Domino Jackpot Winner

TOP ENAM DEWA
No.TanggalNamaPriceWin
121/04 09:18OUYAGmurni enam6,666,000
221/04 08:18SING_HASILmurni enam3,333,000
321/04 07:50KIKIW39murni enam6,666,000
421/04 07:18EV072murni enam3,333,000
521/04 07:03NINABOBO21murni enam666,600
TOP BALAK
No.TanggalNamaPriceWin
121/04 12:41G4G49QQbalak100,000
221/04 12:40MUMYQQbalak100,000
321/04 12:39MBAHREBO99balak100,000
421/04 12:38MORATIbalak50,000
521/04 12:37RINTO90balak50,000
LATEST JACKPOT
No.TanggalNamaPriceWin
121/04 12:41HAWKS777murni besar25,000
221/04 12:41BUDIK001murni besar25,000
321/04 12:41G4G49QQbalak100,000
421/04 12:40MUMYQQbalak100,000
521/04 12:40OMSONO12murni besar25,000
621/04 12:40WATTT1234murni kecil50,000
721/04 12:39KIT999murni besar50,000
821/04 12:39LIMO24murni kecil5,000
921/04 12:39KAMPLE9murni besar50,000
1021/04 12:39YESHOREEmurni kecil25,000
1121/04 12:39MBAHREBO99balak100,000
1221/04 12:38CB77PRAK86murni kecil25,000
1321/04 12:38N4G4EM4Slucky99200,000
1421/04 12:38TEPUCEKmurni kecil25,000
1521/04 12:38MORATIbalak50,000
1621/04 12:37RINTO90balak50,000
1721/04 12:37ANINDYAH66murni kecil25,000
1821/04 12:36C899murni kecil50,000
1921/04 12:35KALLARAU46murni kecil5,000
2021/04 12:35SARANGPOOmurni besar25,000
2121/04 12:35EVRIT01murni kecil25,000
2221/04 12:35YESHOREEmurni kecil25,000
2321/04 12:35DEDY199murni besar25,000
2421/04 12:34LUKEHmurni kecil25,000
2521/04 12:34RFND9A4Y6Hmurni besar25,000
2621/04 12:33BERTASSmurni kecil5,000
2721/04 12:33GG9090murni besar50,000
2821/04 12:32IDK893771balak50,000
2921/04 12:32ARIF8877murni besar50,000
3021/04 12:31ABIDZAR16lucky992,500
3121/04 12:30MTA99BALAPbalak50,000
3221/04 12:30COBRA8888murni besar50,000
3321/04 12:29MBAHREBO99murni besar50,000
3421/04 12:29WUCINGmurni kecil25,000
3521/04 12:29C4H50L0murni besar5,000
3621/04 12:29BOJESZZ25balak100,000
3721/04 12:28BOY040404murni besar50,000
3821/04 12:28COBLACK26murni kecil25,000
3921/04 12:27MIDAS456murni kecil50,000
4021/04 12:27ECENG69lucky9910,000
4121/04 12:26HERNITA89murni besar50,000
4221/04 12:26BATAK_BROmurni besar5,000
4321/04 12:26STICKER5murni kecil25,000
4421/04 12:26WIRO8212murni kecil50,000
4521/04 12:25HEYGENGSmurni kecil5,000
4621/04 12:25IDK893771murni besar25,000
4721/04 12:25ARENA1979balak50,000
4821/04 12:24MENTER1234balak10,000
4921/04 12:24ENJEL15198murni besar50,000
5021/04 12:21EFFImurni kecil5,000

Ceme Multi Jackpot System

Jackpot dilihat dari gabungan kartu pemain dengan kartu bandar. Bandar harus membeli jackpot sebanyak jumlah player yang sedang duduk. Sebagai contoh bila terdapat 3 pemain duduk bermain, dan bandar memutuskan untuk membeli jackpot Rp 1.000, maka pada periode tersebut bandar akan membeli jackpot sebanyak 3xRp1.000 = Rp3.000.

Jackpot bukanlah suatu keharusan untuk dibeli, namun kami memberikan suatu fitur tambahan untuk member tercinta dari www.domino365.org.

Terdapat tiga pilihan harga jackpot yang bisa anda beli yaitu :100,500 dan 1000 rupiah.

Hadiah dari Multi jackpot system www.domino365.org

  1. Murni Kecil x 50 harga jackpot yang anda beli.
      (contoh:anda membeli 1000 maka:1000 X 50 = 50.000)
  2. Murni Besar x 50 harga jackpot yang anda beli
      (contoh:anda membeli 1000 maka:1000 X 50 = 50.000)
  3. BALAK x 200 harga jackpot yang anda beli
      (contoh:anda membeli 1000 maka:1000 X 200 = 200.000)
  4. ENAM DEWA x 6666 harga jackpot yang anda beli
      (contoh:anda membeli 1000 maka:1000 X 6666 = 6.666.000)

Demikian adalah penjelasan dari Multi Jackpot www.domino365.org terima kasih dan selamat bermain salam hoki dari kami

Ceme Jackpot Winner

TOP ENAM DEWA
No.TanggalNamaPriceWin
121/04 12:42SBYPOKER00murni enam6,666,000
221/04 12:37J6D5FXSM01murni enam6,666,000
321/04 12:37MRAHMAD10murni enam6,666,000
421/04 12:36CHIPEKOmurni enam6,666,000
521/04 12:36PUK1N3murni enam6,666,000
TOP BALAK
No.TanggalNamaPriceWin
121/04 12:42GAM8LER88balak100,000
221/04 12:41BOXCOFFEEbalak200,000
321/04 12:40AYAMKARO28balak100,000
421/04 12:40REOGDORRbalak200,000
521/04 12:39Z1M3Q5TWAXbalak200,000
LATEST JACKPOT
No.TanggalNamaPriceWin
121/04 12:42RRUSAKKmurni kecil50,000
221/04 12:42GAM8LER88balak100,000
321/04 12:42HARUNAARONmurni besar5,000
421/04 12:42RYBEE001murni kecil50,000
521/04 12:42GOFA12murni kecil50,000
621/04 12:42RYBEE001murni kecil50,000
721/04 12:42GLENSKIE21murni kecil5,000
821/04 12:42A35955A5murni besar5,000
921/04 12:42SBYPOKER00murni enam6,666,000
1021/04 12:41EKO197murni kecil50,000
1121/04 12:41BOXCOFFEEbalak200,000
1221/04 12:41MUTH17murni kecil25,000
1321/04 12:41POW3R65murni besar5,000
1421/04 12:41ARMAN212murni kecil50,000
1521/04 12:41PROPAGAND4murni kecil50,000
1621/04 12:41SURYASTAR1murni besar50,000
1721/04 12:41FU1U5S55murni kecil5,000
1821/04 12:41ANDEK00murni kecil50,000
1921/04 12:41RELISON1murni kecil5,000
2021/04 12:41RYBEE001murni kecil50,000
2121/04 12:41RYBEE001murni kecil50,000
2221/04 12:40KARSIDINmurni besar50,000
2321/04 12:40AYAMKARO28balak100,000
2421/04 12:40REOGDORRbalak200,000
2521/04 12:40D00XLWKAD4murni besar5,000
2621/04 12:40A35955A5murni kecil5,000
2721/04 12:40NEWSPUTmurni kecil5,000
2821/04 12:40PAKUNAmurni kecil50,000
2921/04 12:40J6D5FXSM01murni besar50,000
3021/04 12:40BDX12murni kecil50,000
3121/04 12:40RAFIKA878murni kecil50,000
3221/04 12:40DA2NAR4Amurni besar50,000
3321/04 12:40ZAENAL987murni besar50,000
3421/04 12:40ARMAN212murni kecil50,000
3521/04 12:40ARMAN212murni kecil50,000
3621/04 12:40GABAN9GGmurni kecil50,000
3721/04 12:40BANTAIXXmurni kecil5,000
3821/04 12:40HAPPY688murni besar50,000
3921/04 12:40SDF123murni kecil50,000
4021/04 12:40AMIR5000murni kecil50,000
4121/04 12:40SONGG08898murni besar5,000
4221/04 12:40UDASAYANG8murni kecil25,000
4321/04 12:40OURIP_OPOmurni kecil5,000
4421/04 12:40UDASAYANG8murni kecil25,000
4521/04 12:40TYOMOE22murni besar50,000
4621/04 12:40DANAU120murni besar5,000
4721/04 12:40NGEEHE378murni kecil50,000
4821/04 12:40BOWO0404murni kecil25,000
4921/04 12:39OVYmurni kecil25,000
5021/04 12:39ALVINMAHMUmurni kecil50,000